Location: Borojevi?i
(45.0486°N, 16.2297°E)
Time: 16:34:56
(UTC+00:00)

Cosmos 2237 - Pass Details

Date: 08 August 2020
Orbit: 847 x 855 km, 70.8° (Epoch: 18 September)

Event Time Altitude Azimuth Distance (km) Brightness Sun altitude
Rises 21:52:16 0° 334° (NNW) 3,433 8.6 -27.2°
Reaches altitude 10° 21:54:44 10° 336° (NNW) 2,492 7.6 -27.3°
Maximum altitude 22:00:28 81° 63° (ENE) 867 4.1 -27.6°
Enters shadow 22:00:36 80° 85° (E) 869 4.1 -27.6°
